CW8690 Weather Reports


Display with metric or nautical units.
time (UTC)temp
F
wind
direction
speed
MPH
gust
MPH
rain 1hr
in
rain 24hr
in
rain mn
in
humidity
%
barometer
mb
20260905004134 87 109 4.0 10.0 0.00 0.00 0.00 81 1009.5
20260905002634 88 98 10.0 16.0 0.00 0.00 0.00 80 1009.4
20260905001141 88 111 9.0 17.0 0.00 0.00 0.00 78 1009.2
20260904235621 89 107 7.0 15.0 0.00 0.00 0.00 77 1009.1
20260904234121 89 105 9.0 17.0 0.00 0.00 0.00 78 1009.0
20260904232624 90 113 8.0 16.0 0.00 0.00 0.00 76 1009.0
20260904231125 90 115 9.0 20.0 0.00 0.00 0.00 75 1009.0
20260904225626 91 134 11.0 18.0 0.00 0.00 0.00 73 1009.0
20260904224143 92 140 5.0 19.0 0.00 0.00 0.00 74 1008.9
20260904222641 91 100 9.0 18.0 0.00 0.00 0.00 73 1008.9
20260904221131 92 113 7.0 18.0 0.00 0.00 0.00 72 1008.7
20260904215624 92 61 6.0 17.0 0.00 0.00 0.00 73 1008.7
20260904214121 93 69 8.0 18.0 0.00 0.00 0.00 72 1008.6
20260904212624 94 46 7.0 16.0 0.00 0.00 0.00 71 1008.7
20260904211142 93 82 7.0 17.0 0.00 0.00 0.00 72 1008.7
20260904205623 94 121 9.0 18.0 0.00 0.00 0.00 69 1008.9
20260904204123 95 95 7.0 15.0 0.00 0.00 0.00 68 1008.7
20260904202643 95 80 7.0 16.0 0.00 0.00 0.00 66 1008.9
20260904201155 96 124 9.0 18.0 0.00 0.00 0.00 65 1008.9
20260904195620 95 96 8.0 18.0 0.00 0.00 0.00 67 1008.8
20260904194118 96 103 8.0 17.0 0.00 0.00 0.00 64 1009.1
20260904192620 96 160 8.0 16.0 0.00 0.00 0.00 63 1009.1
20260904191138 96 39 10.0 16.0 0.00 0.00 0.00 63 1009.4
20260904185635 96 143 6.0 15.0 0.00 0.00 0.00 62 1009.4
20260904184127 96 146 6.0 15.0 0.00 0.00 0.00 64 1009.5
20260904182628 96 150 8.0 14.0 0.00 0.00 0.00 62 1009.7
20260904181125 95 118 6.0 14.0 0.00 0.00 0.00 63 1010.0
20260904175622 94 133 9.0 14.0 0.00 0.00 0.00 65 1010.0
20260904174116 95 136 7.0 12.0 0.00 0.00 0.00 64 1010.3
20260904172635 95 153 5.0 10.0 0.00 0.00 0.00 64 1010.6
20260904171129 95 165 5.0 12.0 0.00 0.00 0.00 63 1010.6
20260904165629 94 134 8.0 15.0 0.00 0.00 0.00 65 1010.6
20260904164127 94 160 8.0 15.0 0.00 0.00 0.00 65 1010.9
20260904162648 93 156 7.0 17.0 0.00 0.00 0.00 67 1010.9
20260904161123 92 177 9.0 15.0 0.00 0.00 0.00 69 1010.9
20260904155623 92 169 7.0 12.0 0.00 0.00 0.00 71 1010.9
20260904154141 91 161 5.0 18.0 0.00 0.00 0.00 73 1010.9
20260904152620 90 127 7.0 12.0 0.00 0.00 0.00 75 1011.1
20260904151117 88 153 6.0 14.0 0.00 0.00 0.00 77 1011.1
20260904145635 87 123 8.0 15.0 0.00 0.00 0.00 80 1010.9
20260904144147 87 136 6.0 13.0 0.00 0.00 0.00 83 1011.0
20260904142622 87 171 7.0 10.0 0.00 0.00 0.00 83 1010.9
20260904141141 86 143 5.0 10.0 0.00 0.00 0.00 85 1010.8
20260904135633 84 126 4.0 9.0 0.00 0.00 0.00 88 1010.8
20260904134142 83 138 3.0 8.0 0.00 0.00 0.00 90 1010.8
20260904132636 82 126 3.0 8.0 0.00 0.00 0.00 93 1010.6
20260904131126 80 130 3.0 4.0 0.00 0.00 0.00 95 1010.7
20260904125645 80 126 1.0 3.0 0.00 0.00 0.00 96 1010.5
20260904124122 79 131 1.0 3.0 0.00 0.00 0.00 96 1010.5
20260904122644 79 130 0.0 3.0 0.00 0.00 0.00 96 1010.2
20260904121141 78 130 2.0 4.0 0.00 0.00 0.00 96 1010.0
20260904115633 78 124 0.0 0.0 0.00 0.00 0.00 96 1009.8
20260904114139 79 124 0.0 0.0 0.00 0.00 0.00 95 1009.8
20260904112618 79 125 0.0 0.0 0.00 0.00 0.00 95 1009.7
20260904111128 79 124 0.0 0.0 0.00 0.00 0.00 94 1009.7
20260904104124 80 125 0.0 0.0 0.00 0.00 0.00 94 1009.6
20260904102646 80 124 0.0 1.0 0.00 0.00 0.00 93 1009.7
20260904101125 80 124 1.0 4.0 0.00 0.00 0.00 93 1009.6
20260904095638 81 123 0.0 0.0 0.00 0.00 0.00 93 1009.5
20260904094138 81 123 1.0 3.0 0.00 0.00 0.00 92 1009.6
20260904092620 81 123 0.0 3.0 0.00 0.00 0.00 92 1009.7
20260904091120 82 121 1.0 4.0 0.00 0.00 0.00 92 1009.7
20260904085644 82 125 0.0 4.0 0.00 0.00 0.00 91 1009.8
20260904084120 82 137 2.0 4.0 0.00 0.00 0.00 91 1009.7
20260904082620 82 132 2.0 4.0 0.00 0.00 0.00 91 1009.8
20260904081117 82 140 1.0 5.0 0.00 0.00 0.00 90 1009.6
20260904075639 83 146 2.0 5.0 0.00 0.00 0.00 89 1009.8
20260904074132 83 161 3.0 7.0 0.00 0.00 0.00 89 1009.8
20260904072626 83 139 5.0 8.0 0.00 0.00 0.00 89 1010.0
20260904071125 83 119 5.0 8.0 0.00 0.00 0.00 89 1010.0
20260904065625 83 171 3.0 8.0 0.00 0.00 0.00 89 1010.2
20260904064124 84 130 6.0 10.0 0.00 0.00 0.00 89 1010.2
20260904062625 84 109 5.0 9.0 0.00 0.00 0.00 89 1010.4
20260904061144 84 113 4.0 8.0 0.00 0.00 0.00 89 1010.4
20260904055625 84 145 4.0 9.0 0.00 0.00 0.00 89 1010.4
20260904054122 84 128 4.0 9.0 0.00 0.00 0.00 89 1010.5
20260904052623 84 128 5.0 11.0 0.00 0.00 0.00 89 1010.5
20260904051122 84 165 4.0 8.0 0.00 0.00 0.00 89 1010.6
20260904045617 84 155 4.0 11.0 0.00 0.00 0.00 88 1010.5
20260904044117 84 155 5.0 9.0 0.00 0.00 0.00 88 1010.4
20260904042641 84 139 5.0 9.0 0.00 0.00 0.00 88 1010.6
20260904041119 84 117 5.0 11.0 0.00 0.00 0.00 88 1010.4
20260904035622 84 127 6.0 12.0 0.00 0.00 0.00 88 1010.6
20260904034121 84 123 7.0 13.0 0.00 0.00 0.00 88 1010.3
20260904032623 85 126 6.0 12.0 0.00 0.00 0.00 88 1010.2
20260904031124 85 119 5.0 12.0 0.00 0.00 0.00 88 1010.3
20260904025705 85 112 7.0 12.0 0.00 0.00 0.00 88 1010.0
20260904024137 85 67 5.0 14.0 0.00 0.00 0.00 87 1009.7
20260904022631 85 94 5.0 12.0 0.00 0.00 0.00 86 1009.7
20260904021124 85 81 6.0 15.0 0.00 0.00 0.00 86 1009.8
20260904015625 85 133 8.0 15.0 0.00 0.00 0.00 85 1009.5
20260904014143 86 96 8.0 18.0 0.00 0.00 0.00 85 1009.3
20260904012636 86 76 9.0 16.0 0.00 0.00 0.00 84 1008.8
20260904011142 86 127 10.0 19.0 0.00 0.00 0.00 84 1009.0
20260904005625 87 139 10.0 18.0 0.00 0.00 0.00 83 1009.0